When you browse on this site, cookies collect data to enhance your experience and personalize the content and advertising you see.
Visit our Privacy Policy to learn more. By continuing to use the site, you agree to this use of cookies and data.
  • In United Kingdom
  • List of Countries
  • For 7 days
  • Water Temperature
  • Satellite Maps
  • Weather Map
  • Weather Widgets
  • user-avatar
    Login

    Hourly Weather Tergachi

    Today, 17 January, Thursday

    Time Temperature Precipitation Wind Pressure Humidity
    00:00 +2°C° 0 mm 3 mps 699 mmHg 72%
    01:00 +2°C° 0 mm 3 mps 699 mmHg 67%
    02:00 +1°C° 0 mm 3 mps 699 mmHg 63%
    03:00 +1°C° 0 mm 3 mps 699 mmHg 61%
    04:00 +1°C° 0 mm 3 mps 699 mmHg 58%
    05:00 0°C° 0 mm 4 mps 699 mmHg 54%
    06:00 0°C° 0 mm 4 mps 699 mmHg 52%
    07:00 +1°C° 0 mm 3 mps 699 mmHg 51%
    08:00 +1°C° 0 mm 3 mps 699 mmHg 50%
    09:00 +2°C° 0 mm 3 mps 699 mmHg 48%
    10:00 +4°C° 0 mm 3 mps 698 mmHg 46%
    11:00 +7°C° 0 mm 2 mps 698 mmHg 43%
    12:00 +8°C° 0 mm 2 mps 697 mmHg 43%
    13:00 +8°C° 0 mm 2 mps 697 mmHg 42%
    14:00 +9°C° 0 mm 2 mps 697 mmHg 42%
    15:00 +8°C° 0 mm 2 mps 697 mmHg 45%
    16:00 +7°C° 0 mm 3 mps 697 mmHg 48%
    17:00 +5°C° 0 mm 3 mps 697 mmHg 50%
    18:00 +4°C° 0 mm 3 mps 697 mmHg 48%
    19:00 +3°C° 0 mm 4 mps 697 mmHg 45%
    20:00 +3°C° 0 mm 4 mps 697 mmHg 42%
    21:00 +3°C° 0 mm 4 mps 696 mmHg 41%
    22:00 +1°C° 0 mm 4 mps 696 mmHg 39%
    23:00 +1°C° 0 mm 4 mps 696 mmHg 37%

    Tomorrow, 18 January, Friday

    Time Temperature Precipitation Wind Pressure Humidity
    00:00 +1°C° 0 mm 4 mps 695 mmHg 37%
    01:00 +1°C° 0 mm 4 mps 695 mmHg 37%
    02:00 +1°C° 0 mm 4 mps 694 mmHg 37%
    03:00 +1°C° 0 mm 4 mps 694 mmHg 36%
    04:00 +2°C° 0 mm 3 mps 693 mmHg 35%
    05:00 +2°C° 0 mm 3 mps 693 mmHg 35%
    06:00 +2°C° 0 mm 3 mps 693 mmHg 34%
    07:00 +2°C° 0 mm 3 mps 692 mmHg 33%
    08:00 +2°C° 0 mm 3 mps 692 mmHg 32%
    09:00 +4°C° 0 mm 3 mps 691 mmHg 32%
    10:00 +7°C° 0 mm 3 mps 691 mmHg 32%
    11:00 +9°C° 0 mm 2 mps 690 mmHg 31%
    12:00 +9°C° 0 mm 2 mps 690 mmHg 34%
    13:00 +9°C° 0 mm 2 mps 690 mmHg 36%
    14:00 +10°C° 0 mm 1 mps 690 mmHg 39%
    15:00 +10°C° 0 mm 1 mps 690 mmHg 40%
    16:00 +9°C° 0 mm 1 mps 690 mmHg 40%
    17:00 +8°C° 0 mm 1 mps 690 mmHg 41%
    18:00 +8°C° 0 mm 1 mps 691 mmHg 40%
    19:00 +7°C° 0 mm 2 mps 691 mmHg 40%
    20:00 +7°C° 0 mm 2 mps 692 mmHg 39%
    21:00 +7°C° 0 mm 2 mps 692 mmHg 42%
    22:00 +6°C° 0 mm 2 mps 692 mmHg 44%
    23:00 +6°C° 0 mm 2 mps 692 mmHg 47%

    Day after tomorrow, 19 January, Saturday

    Time Temperature Precipitation Wind Pressure Humidity
    00:00 +7°C° 0 mm 1 mps 693 mmHg 48%
    01:00 +6°C° 0 mm 1 mps 693 mmHg 49%
    02:00 +6°C° 0 mm 1 mps 693 mmHg 50%
    03:00 +6°C° 0 mm 1 mps 694 mmHg 50%
    04:00 +5°C° 0 mm 2 mps 694 mmHg 50%
    05:00 +5°C° 0 mm 2 mps 694 mmHg 50%
    06:00 +5°C° 0 mm 2 mps 694 mmHg 50%
    07:00 +5°C° 0 mm 2 mps 695 mmHg 50%
    08:00 +5°C° 0 mm 1 mps 695 mmHg 50%
    09:00 +6°C° 0 mm 2 mps 695 mmHg 46%
    10:00 +8°C° 0 mm 2 mps 695 mmHg 42%
    11:00 +9°C° 0 mm 2 mps 695 mmHg 39%
    12:00 +10°C° 0 mm 2 mps 695 mmHg 38%
    13:00 +12°C° 0 mm 1 mps 695 mmHg 37%
    14:00 +12°C° 0 mm 1 mps 694 mmHg 36%
    15:00 +11°C° 0 mm 1 mps 694 mmHg 40%
    16:00 +10°C° 0 mm 1 mps 694 mmHg 43%
    17:00 +9°C° 0 mm 1 mps 694 mmHg 46%
    18:00 +8°C° 0 mm 2 mps 695 mmHg 47%
    19:00 +7°C° 0 mm 2 mps 695 mmHg 48%
    20:00 +6°C° 0 mm 2 mps 695 mmHg 49%
    21:00 +6°C° 0 mm 2 mps 695 mmHg 49%
    22:00 +6°C° 0 mm 2 mps 694 mmHg 48%
    23:00 +6°C° 0 mm 2 mps 694 mmHg 48%

    20 January, Sunday

    Time Temperature Precipitation Wind Pressure Humidity
    00:00 +6°C° 0 mm 2 mps 694 mmHg 48%
    01:00 +6°C° 0 mm 2 mps 693 mmHg 49%
    02:00 +6°C° 0 mm 2 mps 693 mmHg 49%
    03:00 +6°C° 0 mm 1 mps 693 mmHg 51%
    04:00 +5°C° 0 mm 1 mps 693 mmHg 52%
    05:00 +5°C° 0 mm 1 mps 692 mmHg 53%
    06:00 +5°C° 0 mm 1 mps 693 mmHg 53%
    07:00 +4°C° 0 mm 1 mps 693 mmHg 52%
    08:00 +4°C° 0 mm 1 mps 693 mmHg 52%
    09:00 +5°C° 0 mm 1 mps 693 mmHg 52%
    10:00 +6°C° 0 mm 1 mps 693 mmHg 52%
    11:00 +7°C° 0 mm 1 mps 694 mmHg 52%
    12:00 +7°C° 0 mm 1 mps 693 mmHg 54%
    13:00 +7°C° 0 mm 1 mps 693 mmHg 56%
    14:00 +7°C° 0 mm 1 mps 693 mmHg 58%
    15:00 +6°C° 0 mm 1 mps 694 mmHg 61%
    16:00 +6°C° 0 mm 1 mps 694 mmHg 64%
    17:00 +6°C° 0 mm 1 mps 694 mmHg 67%
    18:00 +5°C° 0 mm 1 mps 695 mmHg 70%
    19:00 +5°C° 0 mm 1 mps 695 mmHg 72%
    20:00 +4°C° 0 mm 1 mps 695 mmHg 75%
    21:00 +4°C° 0 mm 1 mps 696 mmHg 78%
    22:00 +3°C° 0 mm 1 mps 696 mmHg 81%
    23:00 +3°C° 0 mm 1 mps 697 mmHg 84%

    21 January, Monday

    Time Temperature Precipitation Wind Pressure Humidity
    00:00 +3°C° 0 mm 1 mps 697 mmHg 86%
    01:00 +2°C° 0 mm 1 mps 697 mmHg 88%
    02:00 +2°C° 0 mm 1 mps 698 mmHg 89%
    03:00 +2°C° 0 mm 1 mps 698 mmHg 89%
    04:00 +1°C° 0 mm 0 mps 698 mmHg 89%
    05:00 +1°C° 0 mm 0 mps 698 mmHg 89%
    06:00 +1°C° 0 mm 0 mps 698 mmHg 88%
    07:00 +1°C° 0 mm 0 mps 699 mmHg 87%
    08:00 +1°C° 0 mm 0 mps 699 mmHg 86%
    09:00 +2°C° 0 mm 1 mps 699 mmHg 81%
    10:00 +3°C° 0 mm 1 mps 699 mmHg 76%
    11:00 +4°C° 0 mm 1 mps 699 mmHg 71%
    12:00 +5°C° 0 mm 1 mps 698 mmHg 69%
    13:00 +5°C° 0 mm 1 mps 698 mmHg 66%
    14:00 +5°C° 0 mm 2 mps 698 mmHg 63%
    15:00 +4°C° 0 mm 2 mps 698 mmHg 67%
    16:00 +4°C° 0 mm 2 mps 698 mmHg 71%
    17:00 +3°C° 0 mm 2 mps 698 mmHg 75%
    18:00 +4°C° 0 mm 1 mps 698 mmHg 76%
    19:00 +3°C° 0 mm 1 mps 698 mmHg 77%
    20:00 +3°C° 0 mm 1 mps 699 mmHg 78%
    21:00 +3°C° 0 mm 1 mps 698 mmHg 79%
    22:00 +2°C° 0 mm 0 mps 698 mmHg 79%
    23:00 +2°C° 0 mm 0 mps 698 mmHg 80%

    22 January, Tuesday

    Time Temperature Precipitation Wind Pressure Humidity
    00:00 +1°C° 0 mm 0 mps 698 mmHg 81%
    01:00 +1°C° 0 mm 0 mps 698 mmHg 82%
    02:00 +1°C° 0 mm 0 mps 697 mmHg 83%
    03:00 +1°C° 0 mm 0 mps 697 mmHg 83%
    04:00 +1°C° 0 mm 0 mps 697 mmHg 83%
    05:00 +1°C° 0 mm 0 mps 697 mmHg 83%
    06:00 0°C° 0 mm 0 mps 697 mmHg 83%
    07:00 0°C° 0 mm 0 mps 697 mmHg 82%
    08:00 0°C° 0 mm 0 mps 697 mmHg 81%
    09:00 +1°C° 0 mm 0 mps 697 mmHg 75%
    10:00 +3°C° 0 mm 1 mps 697 mmHg 70%
    11:00 +4°C° 0 mm 1 mps 696 mmHg 64%
    12:00 +5°C° 0 mm 1 mps 696 mmHg 62%
    13:00 +5°C° 0 mm 1 mps 696 mmHg 61%
    14:00 +6°C° 0 mm 1 mps 695 mmHg 59%
    15:00 +5°C° 0 mm 1 mps 695 mmHg 63%
    16:00 +5°C° 0 mm 1 mps 695 mmHg 67%
    17:00 +4°C° 0 mm 1 mps 696 mmHg 71%
    18:00 +4°C° 0 mm 1 mps 696 mmHg 70%
    19:00 +3°C° 0 mm 1 mps 696 mmHg 70%
    20:00 +3°C° 0 mm 1 mps 697 mmHg 70%
    21:00 +3°C° 0 mm 1 mps 697 mmHg 68%
    22:00 +3°C° 0 mm 1 mps 697 mmHg 66%
    23:00 +2°C° 0 mm 1 mps 697 mmHg 64%
    Show more